STARLINK-30890, 58362

Orbit data source: Space-Track

STARLINK-30890, 58362 is a payload satellite owned by SpaceX/Seattle (US) in LEO that was launched on Sat, 18 Nov 2023 UTC via an FALCON 9 launch vehicle from the Air Force Eastern Test Range (AFETR). Payload-class satellites include a variety of spacecraft equipped with specific instruments for various scientific and technological missions. These include communications satellites like Starlink; space stations such as the ISS; scientific satellites like the Hubble; Earth observation satellites from companies like Planet Labs, Umbra, and HawkEye 360; GPS; miniature CubeSats for education and research; and military/defense satellites.

Loading next visibility...
Identifier
58362, 2023-177M
Orbit
LEO
Country
Flag of USUS
Related business
Manufacturer
SpaceX/Seattle
Mission
Operational Commercial Communications
Bus & Motor
STARLINK V2M, Unknown motor
Mass
730 kg wet, ~700 kg dry
Launch date (UTC)
2023-11-18 (3 years ago)
Launch vehicle
FALCON 9
Launch site
Air Force Eastern Test Range (AFETR)
Object type
Payload
Rocket body
Debris
Shape & HBR
Box + 2 Pan, 17.7 m
Radar Cross Section
33.884 m², Large (>1 m²)

Expand to show TLE details & history
Last TLE update: 2 days ago

TLE from 2 days ago
0 STARLINK-30890
1 58362U 23177M   26171.25204946  .00001662  00000-0  69928-4 0  9996
2 58362  43.0017 131.3335 0000889 268.0423  92.0326 15.27568158143862
Epoch: 2026-06-20T06:02Z
TLE epoch observation values (Epoch: 2026-06-20T06:02:57.073Z)
Latitude
-0.00007°
Longitude
132.12628°
Altitude
482.882 km
Speed
7.626 km/s
True Right ascension
08h 45m 20s
True Declination
0° 00' 00"
Sunlit
Object was in daylight at epoch
Visualization orbit readout
Latitude
Unknown
Longitude
Unknown
Altitude
Unknown
Speed
Unknown
Apparent Right ascension
Unknown
Apparent Declination
Unknown
Sunlit
N/A
Visualization observer readout
Local Sidereal Time
21:27:17
Azimuth
Unknown
Elevation
Unknown
Doppler factor
Unknown
Orbital elements
Apogee altitude
485.64 km
Perigee altitude
484.419 km
Semi-major axis
6,863.166 km
Eccentricity
0.00009
Inclination
43.0017°
RAAN
131.3335°
Arg. of periapsis
268.0423°
True anomaly
92.04278°
Mean anomaly
92.0326°
Eccentric anomaly
92.03769°
Mean motion
3.8173 °/min
Orbital period
94.31 mins
BSTAR
0.000069928
Loading maneuver chart data...
Computing Atmospheric mass density...
Loading historical data...
Loading historical data...
Loading historical data...
Loading historical data...
Loading historical data...
Loading historical data...
Loading historical data...

Documentation

Showing up to 5 results
|